Météo par heure à Alhos Vedros

Ce jour, 22 Octobre, Jeudi

Heure Température Précipitation Vent Pression Humidité
00:00 +16°C° 0.3 mm 3 m/s 754 mmHg 88%
01:00 +16°C° 0.3 mm 3 m/s 754 mmHg 88%
02:00 +16°C° 0.3 mm 3 m/s 754 mmHg 88%
03:00 +14°C° 0.2 mm 3 m/s 754 mmHg 88%
04:00 +15°C° 0.2 mm 2 m/s 754 mmHg 88%
05:00 +15°C° 0.2 mm 2 m/s 754 mmHg 89%
06:00 +16°C° 0.1 mm 2 m/s 755 mmHg 84%
07:00 +17°C° 0.1 mm 2 m/s 755 mmHg 80%
08:00 +18°C° 0.1 mm 2 m/s 755 mmHg 76%
09:00 +19°C° 0 mm 2 m/s 756 mmHg 70%
10:00 +20°C° 0 mm 3 m/s 756 mmHg 65%
11:00 +21°C° 0 mm 4 m/s 756 mmHg 59%
12:00 +21°C° 0 mm 4 m/s 756 mmHg 59%
13:00 +21°C° 0 mm 4 m/s 756 mmHg 60%
14:00 +20°C° 0 mm 5 m/s 756 mmHg 60%
15:00 +19°C° 0 mm 4 m/s 756 mmHg 65%
16:00 +18°C° 0 mm 4 m/s 756 mmHg 71%
17:00 +17°C° 0 mm 4 m/s 757 mmHg 76%
18:00 +17°C° 0.3 mm 3 m/s 757 mmHg 79%
19:00 +17°C° 0.3 mm 3 m/s 758 mmHg 81%
20:00 +16°C° 0.3 mm 3 m/s 759 mmHg 83%
21:00 +16°C° 0.2 mm 3 m/s 759 mmHg 84%
22:00 +16°C° 0.2 mm 3 m/s 759 mmHg 86%
23:00 +15°C° 0.2 mm 2 m/s 760 mmHg 88%

Demain, 23 Octobre, Vendredi

Heure Température Précipitation Vent Pression Humidité
00:00 +15°C° 0 mm 2 m/s 760 mmHg 88%
01:00 +15°C° 0 mm 2 m/s 760 mmHg 88%
02:00 +15°C° 0 mm 2 m/s 761 mmHg 88%
03:00 +15°C° 0 mm 2 m/s 761 mmHg 89%
04:00 +14°C° 0 mm 3 m/s 762 mmHg 89%
05:00 +13°C° 0 mm 3 m/s 762 mmHg 89%
06:00 +14°C° 0 mm 3 m/s 763 mmHg 85%
07:00 +16°C° 0 mm 3 m/s 763 mmHg 81%
08:00 +17°C° 0 mm 3 m/s 764 mmHg 77%
09:00 +18°C° 0 mm 3 m/s 764 mmHg 71%
10:00 +19°C° 0 mm 3 m/s 765 mmHg 65%
11:00 +20°C° 0 mm 3 m/s 765 mmHg 59%
12:00 +20°C° 0 mm 3 m/s 765 mmHg 58%
13:00 +20°C° 0 mm 3 m/s 765 mmHg 57%
14:00 +20°C° 0 mm 3 m/s 765 mmHg 56%
15:00 +19°C° 0 mm 4 m/s 765 mmHg 61%
16:00 +18°C° 0 mm 4 m/s 765 mmHg 67%
17:00 +15°C° 0 mm 4 m/s 765 mmHg 73%
18:00 +16°C° 0 mm 3 m/s 766 mmHg 75%
19:00 +14°C° 0 mm 3 m/s 766 mmHg 76%
20:00 +13°C° 0 mm 3 m/s 767 mmHg 78%
21:00 +14°C° 0 mm 2 m/s 767 mmHg 79%
22:00 +14°C° 0 mm 2 m/s 767 mmHg 80%
23:00 +14°C° 0 mm 2 m/s 766 mmHg 81%

Après-demain, 24 Octobre, Samedi

Heure Température Précipitation Vent Pression Humidité
00:00 +13°C° 0 mm 1 m/s 766 mmHg 82%
01:00 +13°C° 0 mm 1 m/s 766 mmHg 83%
02:00 +13°C° 0 mm 1 m/s 766 mmHg 84%
03:00 +12°C° 0 mm 0 m/s 766 mmHg 84%
04:00 +12°C° 0 mm 0 m/s 766 mmHg 85%
05:00 +11°C° 0 mm 0 m/s 766 mmHg 85%
06:00 +13°C° 0 mm 0 m/s 766 mmHg 80%
07:00 +14°C° 0 mm 0 m/s 766 mmHg 76%
08:00 +15°C° 0 mm 0 m/s 766 mmHg 71%
09:00 +18°C° 0 mm 1 m/s 766 mmHg 67%
10:00 +18°C° 0 mm 2 m/s 766 mmHg 63%
11:00 +19°C° 0 mm 2 m/s 766 mmHg 58%
12:00 +19°C° 0 mm 3 m/s 765 mmHg 59%
13:00 +19°C° 0 mm 3 m/s 765 mmHg 59%
14:00 +19°C° 0 mm 4 m/s 765 mmHg 59%
15:00 +18°C° 0 mm 3 m/s 764 mmHg 63%
16:00 +17°C° 0 mm 3 m/s 764 mmHg 67%
17:00 +17°C° 0 mm 3 m/s 764 mmHg 70%
18:00 +16°C° 0 mm 3 m/s 764 mmHg 72%
19:00 +16°C° 0 mm 3 m/s 764 mmHg 74%
20:00 +16°C° 0 mm 3 m/s 764 mmHg 77%
21:00 +15°C° 0 mm 4 m/s 764 mmHg 79%
22:00 +15°C° 0 mm 4 m/s 764 mmHg 81%
23:00 +15°C° 0 mm 5 m/s 764 mmHg 83%

, 25 Octobre, Dimanche

Heure Température Précipitation Vent Pression Humidité
00:00 +16°C° 0.1 mm 5 m/s 763 mmHg 83%
01:00 +16°C° 0.1 mm 6 m/s 762 mmHg 82%
02:00 +16°C° 0.1 mm 6 m/s 762 mmHg 82%
03:00 +17°C° 0.1 mm 6 m/s 761 mmHg 82%
04:00 +17°C° 0.1 mm 6 m/s 761 mmHg 82%
05:00 +17°C° 0.1 mm 6 m/s 761 mmHg 82%
06:00 +17°C° 0.6 mm 7 m/s 761 mmHg 83%
07:00 +17°C° 0.6 mm 8 m/s 761 mmHg 84%
08:00 +17°C° 0.6 mm 8 m/s 761 mmHg 85%
09:00 +17°C° 0.4 mm 8 m/s 761 mmHg 77%
10:00 +18°C° 0.4 mm 7 m/s 762 mmHg 68%
11:00 +19°C° 0.4 mm 6 m/s 762 mmHg 59%
12:00 +19°C° 0 mm 6 m/s 762 mmHg 57%
13:00 +19°C° 0 mm 6 m/s 762 mmHg 54%
14:00 +19°C° 0 mm 6 m/s 762 mmHg 52%
15:00 +17°C° 0 mm 6 m/s 762 mmHg 56%
16:00 +16°C° 0 mm 5 m/s 763 mmHg 61%
17:00 +14°C° 0 mm 5 m/s 763 mmHg 66%
18:00 +14°C° 0 mm 5 m/s 764 mmHg 68%
19:00 +13°C° 0 mm 4 m/s 764 mmHg 70%
20:00 +13°C° 0 mm 4 m/s 765 mmHg 72%
21:00 +13°C° 0 mm 4 m/s 765 mmHg 72%
22:00 +13°C° 0 mm 3 m/s 765 mmHg 73%
23:00 +13°C° 0 mm 3 m/s 765 mmHg 73%

25 Octobre, Dimanche

Heure Température Précipitation Vent Pression Humidité
00:00 +16°C° 0.1 mm 5 m/s 763 mmHg 83%
01:00 +16°C° 0.1 mm 6 m/s 762 mmHg 82%
02:00 +16°C° 0.1 mm 6 m/s 762 mmHg 82%
03:00 +17°C° 0.1 mm 6 m/s 761 mmHg 82%
04:00 +17°C° 0.1 mm 6 m/s 761 mmHg 82%
05:00 +17°C° 0.1 mm 6 m/s 761 mmHg 82%
06:00 +17°C° 0.6 mm 7 m/s 761 mmHg 83%
07:00 +17°C° 0.6 mm 8 m/s 761 mmHg 84%
08:00 +17°C° 0.6 mm 8 m/s 761 mmHg 85%
09:00 +17°C° 0.4 mm 8 m/s 761 mmHg 77%
10:00 +18°C° 0.4 mm 7 m/s 762 mmHg 68%
11:00 +19°C° 0.4 mm 6 m/s 762 mmHg 59%
12:00 +19°C° 0 mm 6 m/s 762 mmHg 57%
13:00 +19°C° 0 mm 6 m/s 762 mmHg 54%
14:00 +19°C° 0 mm 6 m/s 762 mmHg 52%
15:00 +17°C° 0 mm 6 m/s 762 mmHg 56%
16:00 +16°C° 0 mm 5 m/s 763 mmHg 61%
17:00 +14°C° 0 mm 5 m/s 763 mmHg 66%
18:00 +14°C° 0 mm 5 m/s 764 mmHg 68%
19:00 +13°C° 0 mm 4 m/s 764 mmHg 70%
20:00 +13°C° 0 mm 4 m/s 765 mmHg 72%
21:00 +13°C° 0 mm 4 m/s 765 mmHg 72%
22:00 +13°C° 0 mm 3 m/s 765 mmHg 73%
23:00 +13°C° 0 mm 3 m/s 765 mmHg 73%

26 Octobre, Lundi

Heure Température Précipitation Vent Pression Humidité
00:00 +13°C° 0 mm 3 m/s 765 mmHg 74%
01:00 +13°C° 0 mm 3 m/s 764 mmHg 74%
02:00 +12°C° 0 mm 3 m/s 764 mmHg 75%
03:00 +12°C° 0 mm 3 m/s 764 mmHg 76%
04:00 +12°C° 0 mm 3 m/s 764 mmHg 78%
05:00 +12°C° 0 mm 3 m/s 765 mmHg 79%
06:00 +13°C° 0 mm 3 m/s 765 mmHg 76%
07:00 +14°C° 0 mm 3 m/s 765 mmHg 74%
08:00 +16°C° 0 mm 3 m/s 765 mmHg 71%
09:00 +17°C° 0.1 mm 3 m/s 765 mmHg 67%
10:00 +18°C° 0.1 mm 4 m/s 765 mmHg 63%
11:00 +19°C° 0.1 mm 4 m/s 765 mmHg 59%
12:00 +19°C° 0 mm 4 m/s 765 mmHg 58%
13:00 +19°C° 0 mm 5 m/s 764 mmHg 57%
14:00 +19°C° 0 mm 5 m/s 764 mmHg 56%
15:00 +17°C° 0 mm 5 m/s 764 mmHg 60%
16:00 +15°C° 0 mm 4 m/s 764 mmHg 65%
17:00 +14°C° 0 mm 4 m/s 764 mmHg 70%
18:00 +14°C° 0 mm 4 m/s 764 mmHg 71%
19:00 +13°C° 0 mm 3 m/s 764 mmHg 73%
20:00 +13°C° 0 mm 3 m/s 764 mmHg 75%
21:00 +14°C° 0 mm 2 m/s 765 mmHg 77%
22:00 +14°C° 0 mm 2 m/s 765 mmHg 78%
23:00 +13°C° 0 mm 2 m/s 765 mmHg 79%

27 Octobre, Mardi

Heure Température Précipitation Vent Pression Humidité
00:00 +13°C° 0 mm 2 m/s 764 mmHg 80%
01:00 +13°C° 0 mm 2 m/s 764 mmHg 81%
02:00 +13°C° 0 mm 2 m/s 764 mmHg 82%
03:00 +12°C° 0 mm 2 m/s 764 mmHg 83%
04:00 +12°C° 0 mm 2 m/s 764 mmHg 84%
05:00 +12°C° 0 mm 2 m/s 764 mmHg 84%
06:00 +13°C° 0 mm 1 m/s 764 mmHg 80%
07:00 +14°C° 0 mm 1 m/s 764 mmHg 75%
08:00 +15°C° 0 mm 0 m/s 764 mmHg 71%
09:00 +18°C° 0 mm 1 m/s 764 mmHg 67%
10:00 +18°C° 0 mm 2 m/s 764 mmHg 63%
11:00 +19°C° 0 mm 2 m/s 764 mmHg 59%
12:00 +19°C° 0 mm 2 m/s 763 mmHg 59%
13:00 +19°C° 0 mm 3 m/s 763 mmHg 59%
14:00 +19°C° 0 mm 3 m/s 763 mmHg 59%
15:00 +18°C° 0 mm 3 m/s 763 mmHg 63%
16:00 +17°C° 0 mm 3 m/s 762 mmHg 68%
17:00 +16°C° 0 mm 3 m/s 762 mmHg 72%
18:00 +16°C° 0 mm 3 m/s 762 mmHg 75%
19:00 +15°C° 0 mm 2 m/s 763 mmHg 79%
20:00 +15°C° 0 mm 2 m/s 763 mmHg 82%
21:00 +14°C° 0 mm 2 m/s 763 mmHg 83%
22:00 +14°C° 0 mm 1 m/s 763 mmHg 85%
23:00 +14°C° 0 mm 1 m/s 762 mmHg 86%
Voir plus

Nous avons besoin de votre consentement

Meteoprog et ses fournisseurs de services peuvent stocker et accéder à des données personnelles telles que des cookies, des identifiants d'appareils ou d'autres technologies similaires sur votre appareil et traiter ces données pour personnaliser le contenu et les publicités, ainsi que pour fournir des fonctionnalités de médias sociaux et analyser le trafic.

  • Stocker et/ou accéder à des informations sur votre appareil

    Des cookies, des identifiants d'appareils ou d'autres informations peuvent être stockés ou accessibles sur votre appareil aux fins indiquées ci-dessus.

  • Annonces et contenus personnalisés, mesure des annonces et des contenus, connaissance de l'audience et développement de produits

    Les annonces et le contenu peuvent être personnalisés en fonction d'un profil. D'autres données peuvent être ajoutées pour mieux personnaliser les annonces et le contenu. Les performances des publicités et du contenu peuvent être mesurées. Il est possible d'obtenir des informations sur le public qui a vu les publicités et le contenu. Ces données peuvent être utilisées pour développer ou améliorer l'expérience de l'utilisateur, les systèmes et les logiciels.

En cliquant sur "J'accepte", vous autorisez l'utilisation de cookies, des identifiants d'appareils, des balises web ou d'autres technologies similaires. Vos paramètres peuvent être modifiés dans le navigateur de votre appareil.

Dans certains cas, des intérêts légitimes peuvent être invoqués plutôt qu'un consentement. Vous pouvez en savoir plus à ce sujet dans notre Politique de confidentialité et de cookies.